DELTA 1 DEB, 21351

Orbit data source: Space-Track

DELTA 1 DEB, 21351 is space debris in SSO originally from a launch on Thu, 12 Jun 1975 UTC launched from the Air Force Western Test Range (AFWTR). Debris objects in space refer to the collection of defunct objects orbiting the Earth. Examples of debris include non-operational satellites, rocket bodies, and fragments generated from explosions, collisions, or faulty payload assembly.

Loading next visibility...
Identifier
21351, 1975-052BV
Orbit
SSO
Country
Flag of USUS
Related business
Manufacturer
Unknown
Mission
Spacecraft
Bus & Motor
Unknown
Mass
Unknown
Launch date (UTC)
1975-06-12 (51 years ago)
Launch vehicle
Unknown
Launch site
Air Force Western Test Range (AFWTR)
Object type
Payload
Rocket body
Debris
Shape & HBR
Unknown shape, 0.3 m
Radar Cross Section
Medium (>0.1 m² and <1 m²)

Expand to show TLE details & history
Last TLE update: 8 hours ago

TLE from 8 hours ago
0 DELTA 1 DEB
1 21351U 75052BV  26124.83029448  .00000003  00000-0  91911-4 0  9992
2 21351  99.8407 251.0621 0066028  62.4428  68.5527 13.31644324698430
Epoch: 2026-05-04T19:55Z
TLE epoch observation values (Epoch: 2026-05-04T19:55:37.443Z)
Latitude
47.45519°
Longitude
-79.71947°
Altitude
1,129.945 km
Speed
7.301 km/s
True Right ascension
05h 27m 36s
True Declination
47° 17' 32"
Sunlit
Object was in daylight at epoch
Visualization orbit readout
Latitude
Unknown
Longitude
Unknown
Altitude
Unknown
Speed
Unknown
Apparent Right ascension
Unknown
Apparent Declination
Unknown
Sunlit
N/A
Visualization observer readout
Local Sidereal Time
11:21:34
Azimuth
Unknown
Elevation
Unknown
Doppler factor
Unknown
Orbital elements
Apogee altitude
1,187.527 km
Perigee altitude
1,088.274 km
Semi-major axis
7,516.037 km
Eccentricity
0.0066
Inclination
99.8407°
RAAN
251.0621°
Arg. of periapsis
62.4428°
True anomaly
69.25905°
Mean anomaly
68.5527°
Eccentric anomaly
68.90566°
Mean motion
3.33089 °/min
Orbital period
108.08 mins
BSTAR
0.000091911
Loading maneuver chart data...
Computing Atmospheric mass density...
Loading historical data...
Loading historical data...
Loading historical data...
Loading historical data...
Loading historical data...
Loading historical data...
Loading historical data...

Documentation

Showing up to 5 results
|